Flag for France Weather past 2 weeks in Toulouse, France

Now
43 °F

Clear.


Feels Like: 36 °F
Forecast: 31 / 57 °F
Wind: 12 mph from North

Location: Toulouse / Blagnac

Current Time: Mar 6, 2015 at 12:19:19 AM

Latest Report: Mar 6, 2015 at 12:00 AM


Visibility: N/A

Pressure: 30.60 "Hg

Humidity: 53%

Dew point: 27 °F

Location of ToulouseLocation

Historic Weather in Toulouse — Graph

°F

Toulouse temperature yesterday

Maximum temperature yesterday: 52 °F (at 2:00 PM)
Minimum temperature yesterday: 36 °F (at 7:00 AM)
Average temperature yesterday: 44 °F

Past Weeks' High & Low Weather Summary

 TemperatureHumidityPressure
High59 °F (Mar 1, 3:00 PM)100% (Feb 19, 4:30 AM)30.66 "Hg (Feb 19, 4:30 AM)
Low32 °F (Feb 19, 7:30 AM)35% (Mar 5, 2:30 PM)29.68 "Hg (Feb 21, 5:00 AM)
Average47 °F82%30.16 "Hg
* Reported Feb 18 11:00 PM — Mar 5 11:00 PM, Toulouse, Weather by CustomWeather, © 2015

Note: Actual official high and low records may vary slightly from our data, if they occured in-between our weather recording intervals... More about our weather records

Advertising

Toulouse weather history for previous 24 hours

 ConditionsComfort  
Time TempWeatherWind HumidityBarometerVisibility
11:00 PM
Thu, Mar 5
43 °FClear.10 mph61%30.63 "HgN/A
10:30 PM43 °FClear.7 mph66%30.63 "HgN/A
10:00 PM43 °FClear.10 mph61%30.63 "HgN/A
9:30 PM45 °FClear.10 mph57%30.63 "HgN/A
9:00 PM46 °FClear.14 mph53%30.63 "HgN/A
8:30 PM46 °FClear.12 mph53%30.60 "HgN/A
8:00 PM46 °FClear.12 mph53%30.60 "HgN/A
7:30 PM46 °FClear.13 mph50%30.60 "HgN/A
7:00 PM48 °FClear.10 mph46%30.60 "HgN/A
6:30 PM50 °FClear.13 mph43%30.60 "HgN/A
6:00 PM50 °FClear.15 mph40%30.57 "HgN/A
5:30 PM52 °FClear.15 mph38%30.57 "HgN/A
5:00 PM52 °FClear.15 mph38%30.57 "HgN/A
4:30 PM52 °FClear.16 mph35%30.57 "HgN/A
4:00 PM52 °FClear.16 mph38%30.60 "HgN/A
3:30 PM52 °FClear.15 mph41%30.57 "HgN/A
3:00 PM52 °FClear.16 mph41%30.60 "HgN/A
2:30 PM52 °FPassing clouds.16 mph35%30.60 "HgN/A
2:00 PM52 °FScattered clouds.20 mph44%30.60 "HgN/A
1:30 PM50 °FScattered clouds.17 mph47%30.63 "HgN/A
1:00 PM48 °FPassing clouds.18 mph50%30.63 "HgN/A
12:30 PM48 °FBroken clouds.17 mph50%30.63 "HgN/A
12:00 PM48 °FScattered clouds.20 mph50%30.66 "HgN/A
11:30 AM45 °FPassing clouds.16 mph61%30.66 "HgN/A
11:00 AM45 °FPassing clouds.18 mph66%30.66 "HgN/A
10:30 AM43 °FPassing clouds.17 mph71%30.66 "HgN/A
10:00 AM41 °FPassing clouds.15 mph76%30.66 "HgN/A
9:30 AM41 °FPassing clouds.15 mph76%30.66 "HgN/A
9:00 AM39 °FPassing clouds.15 mph81%30.66 "HgN/A
8:30 AM37 °FClear.15 mph81%30.63 "HgN/A
8:00 AM36 °FClear.16 mph87%30.63 "HgN/A
7:30 AM36 °FClear.15 mph87%30.63 "HgN/A
7:00 AM36 °FClear.15 mph87%30.63 "HgN/A
6:30 AM37 °FClear.15 mph81%30.60 "HgN/A
6:00 AM37 °FClear.15 mph81%30.60 "HgN/A
5:30 AM37 °FClear.20 mph81%30.60 "HgN/A
4:30 AM37 °FClear.18 mph81%30.60 "HgN/A
4:00 AM37 °FClear.16 mph87%30.60 "HgN/A
3:00 AM39 °FClear.15 mph81%30.60 "HgN/A
2:30 AM39 °FClear.17 mph81%30.60 "HgN/A
2:00 AM39 °FClear.17 mph81%30.60 "HgN/A
1:30 AM39 °FClear.17 mph81%30.60 "HgN/A
1:00 AM39 °FClear.16 mph81%30.60 "HgN/A
12:30 AM41 °FClear.17 mph76%30.60 "HgN/A
12:00 AM41 °FClear.17 mph76%30.60 "HgN/A
Weather by CustomWeather, © 2015

See weather overviewHow to use our weather pages